• In Belgien
  • Länderverzeichnis
  • Für 7 Tage
  • Wassertemperatur
  • Satellitenkarten
  • Wetterkarte
  • Widgets
  • user-avatar
    Anmelden

    Stündliche Wetter Kozani

    Heute, 24 September, Montag

    Zeit Temperatur Niederschläge Wind Luftdruck Luftfeuchtigkeit
    00:00 +20°C° 0 mm 1 m/S 706 mmHg 57%
    01:00 +20°C° 0 mm 1 m/S 706 mmHg 59%
    02:00 +20°C° 0 mm 1 m/S 706 mmHg 60%
    03:00 +20°C° 0 mm 1 m/S 705 mmHg 61%
    04:00 +19°C° 0 mm 1 m/S 705 mmHg 63%
    05:00 +20°C° 0 mm 1 m/S 705 mmHg 60%
    06:00 +21°C° 0 mm 1 m/S 705 mmHg 58%
    07:00 +23°C° 0 mm 1 m/S 705 mmHg 55%
    08:00 +25°C° 0 mm 1 m/S 705 mmHg 48%
    09:00 +27°C° 0 mm 1 m/S 705 mmHg 42%
    10:00 +29°C° 0 mm 2 m/S 705 mmHg 35%
    11:00 +30°C° 0 mm 2 m/S 705 mmHg 32%
    12:00 +31°C° 0 mm 2 m/S 705 mmHg 28%
    13:00 +32°C° 0 mm 2 m/S 704 mmHg 25%
    14:00 +31°C° 0 mm 3 m/S 704 mmHg 26%
    15:00 +30°C° 0 mm 3 m/S 704 mmHg 28%
    16:00 +30°C° 0 mm 3 m/S 704 mmHg 29%
    17:00 +27°C° 0 mm 3 m/S 704 mmHg 36%
    18:00 +25°C° 0 mm 3 m/S 704 mmHg 43%
    19:00 +21°C° 0 mm 3 m/S 705 mmHg 50%
    20:00 +19°C° 0 mm 3 m/S 705 mmHg 53%
    21:00 +18°C° 0 mm 3 m/S 705 mmHg 57%
    22:00 +16°C° 0 mm 3 m/S 706 mmHg 60%
    23:00 +16°C° 0 mm 3 m/S 706 mmHg 60%

    Morgen, 25 September, Dienstag

    Zeit Temperatur Niederschläge Wind Luftdruck Luftfeuchtigkeit
    00:00 +14°C° 0 mm 3 m/S 706 mmHg 61%
    01:00 +13°C° 0 mm 3 m/S 706 mmHg 61%
    02:00 +12°C° 0 mm 3 m/S 707 mmHg 60%
    03:00 +12°C° 0 mm 3 m/S 707 mmHg 60%
    04:00 +11°C° 0 mm 3 m/S 707 mmHg 59%
    05:00 +11°C° 0 mm 3 m/S 708 mmHg 56%
    06:00 +11°C° 0 mm 3 m/S 708 mmHg 53%
    07:00 +12°C° 0 mm 3 m/S 709 mmHg 50%
    08:00 +13°C° 0 mm 3 m/S 709 mmHg 45%
    09:00 +16°C° 0 mm 3 m/S 709 mmHg 40%
    10:00 +18°C° 0 mm 3 m/S 710 mmHg 34%
    11:00 +18°C° 0 mm 3 m/S 710 mmHg 32%
    12:00 +19°C° 0 mm 3 m/S 710 mmHg 30%
    13:00 +20°C° 0 mm 3 m/S 710 mmHg 28%
    14:00 +20°C° 0 mm 3 m/S 710 mmHg 28%
    15:00 +19°C° 0 mm 3 m/S 709 mmHg 28%
    16:00 +19°C° 0 mm 4 m/S 709 mmHg 27%
    17:00 +17°C° 0 mm 3 m/S 710 mmHg 30%
    18:00 +14°C° 0 mm 3 m/S 710 mmHg 32%
    19:00 +13°C° 0 mm 3 m/S 710 mmHg 34%
    20:00 +13°C° 0 mm 2 m/S 711 mmHg 36%
    21:00 +12°C° 0 mm 2 m/S 711 mmHg 38%
    22:00 +10°C° 0 mm 2 m/S 711 mmHg 40%
    23:00 +9°C° 0 mm 2 m/S 711 mmHg 43%

    übermorgen, 26 September, Mittwoch

    Zeit Temperatur Niederschläge Wind Luftdruck Luftfeuchtigkeit
    00:00 +8°C° 0 mm 2 m/S 711 mmHg 45%
    01:00 +8°C° 0 mm 2 m/S 712 mmHg 47%
    02:00 +7°C° 0 mm 2 m/S 712 mmHg 49%
    03:00 +7°C° 0 mm 2 m/S 712 mmHg 51%
    04:00 +6°C° 0 mm 2 m/S 712 mmHg 53%
    05:00 +7°C° 0 mm 2 m/S 712 mmHg 52%
    06:00 +7°C° 0 mm 2 m/S 712 mmHg 50%
    07:00 +8°C° 0 mm 2 m/S 713 mmHg 48%
    08:00 +10°C° 0 mm 3 m/S 713 mmHg 45%
    09:00 +11°C° 0 mm 3 m/S 713 mmHg 41%
    10:00 +13°C° 0 mm 3 m/S 713 mmHg 37%
    11:00 +13°C° 0 mm 3 m/S 713 mmHg 34%
    12:00 +14°C° 0 mm 3 m/S 713 mmHg 30%
    13:00 +15°C° 0 mm 4 m/S 713 mmHg 27%
    14:00 +15°C° 0 mm 4 m/S 712 mmHg 26%
    15:00 +15°C° 0 mm 4 m/S 712 mmHg 25%
    16:00 +15°C° 0 mm 4 m/S 712 mmHg 24%
    17:00 +13°C° 0 mm 3 m/S 712 mmHg 27%
    18:00 +11°C° 0 mm 3 m/S 712 mmHg 30%
    19:00 +9°C° 0 mm 2 m/S 713 mmHg 33%
    20:00 +9°C° 0 mm 2 m/S 713 mmHg 36%
    21:00 +8°C° 0 mm 2 m/S 713 mmHg 39%
    22:00 +7°C° 0 mm 2 m/S 713 mmHg 42%
    23:00 +7°C° 0 mm 2 m/S 713 mmHg 45%

    27 September, Donnerstag

    Zeit Temperatur Niederschläge Wind Luftdruck Luftfeuchtigkeit
    00:00 +6°C° 0 mm 2 m/S 713 mmHg 47%
    01:00 +6°C° 0 mm 2 m/S 713 mmHg 50%
    02:00 +5°C° 0 mm 2 m/S 713 mmHg 51%
    03:00 +5°C° 0 mm 2 m/S 712 mmHg 53%
    04:00 +4°C° 0 mm 2 m/S 712 mmHg 54%
    05:00 +5°C° 0 mm 2 m/S 712 mmHg 50%
    06:00 +5°C° 0 mm 3 m/S 712 mmHg 47%
    07:00 +7°C° 0 mm 3 m/S 712 mmHg 43%
    08:00 +10°C° 0 mm 3 m/S 712 mmHg 37%
    09:00 +12°C° 0 mm 4 m/S 711 mmHg 31%
    10:00 +14°C° 0 mm 4 m/S 711 mmHg 24%
    11:00 +15°C° 0 mm 5 m/S 710 mmHg 22%
    12:00 +16°C° 0 mm 5 m/S 710 mmHg 20%
    13:00 +17°C° 0 mm 6 m/S 709 mmHg 18%
    14:00 +17°C° 0 mm 5 m/S 709 mmHg 18%
    15:00 +17°C° 0 mm 5 m/S 708 mmHg 18%
    16:00 +18°C° 0 mm 4 m/S 708 mmHg 19%
    17:00 +15°C° 0 mm 4 m/S 708 mmHg 22%
    18:00 +13°C° 0 mm 3 m/S 708 mmHg 24%
    19:00 +12°C° 0 mm 2 m/S 708 mmHg 27%
    20:00 +10°C° 0 mm 2 m/S 708 mmHg 30%
    21:00 +10°C° 0 mm 2 m/S 707 mmHg 33%
    22:00 +9°C° 0 mm 2 m/S 707 mmHg 36%
    23:00 +9°C° 0 mm 2 m/S 707 mmHg 38%

    28 September, Freitag

    Zeit Temperatur Niederschläge Wind Luftdruck Luftfeuchtigkeit
    00:00 +8°C° 0 mm 2 m/S 707 mmHg 39%
    01:00 +8°C° 0 mm 2 m/S 706 mmHg 41%
    02:00 +8°C° 0.1 mm 2 m/S 706 mmHg 43%
    03:00 +9°C° 0.1 mm 1 m/S 706 mmHg 44%
    04:00 +9°C° 0.1 mm 1 m/S 706 mmHg 46%
    05:00 +8°C° 0.2 mm 2 m/S 706 mmHg 47%
    06:00 +9°C° 0.2 mm 2 m/S 706 mmHg 48%
    07:00 +9°C° 0.2 mm 2 m/S 706 mmHg 48%
    08:00 +10°C° 0.2 mm 2 m/S 706 mmHg 46%
    09:00 +12°C° 0.2 mm 2 m/S 706 mmHg 43%
    10:00 +13°C° 0.2 mm 2 m/S 706 mmHg 41%
    11:00 +14°C° 0 mm 2 m/S 705 mmHg 42%
    12:00 +15°C° 0 mm 2 m/S 705 mmHg 44%
    13:00 +15°C° 0 mm 2 m/S 705 mmHg 45%
    14:00 +15°C° 0.4 mm 2 m/S 704 mmHg 51%
    15:00 +14°C° 0.4 mm 2 m/S 704 mmHg 57%
    16:00 +14°C° 0.4 mm 2 m/S 704 mmHg 63%
    17:00 +13°C° 0.6 mm 2 m/S 704 mmHg 69%
    18:00 +12°C° 0.6 mm 2 m/S 704 mmHg 74%
    19:00 +12°C° 0.6 mm 1 m/S 704 mmHg 80%
    20:00 +12°C° 0.1 mm 1 m/S 704 mmHg 79%
    21:00 +12°C° 0.1 mm 1 m/S 704 mmHg 79%
    22:00 +12°C° 0.1 mm 1 m/S 704 mmHg 78%
    23:00 +11°C° 0 mm 1 m/S 704 mmHg 77%

    29 September, Samstag

    Zeit Temperatur Niederschläge Wind Luftdruck Luftfeuchtigkeit
    00:00 +11°C° 0 mm 1 m/S 704 mmHg 77%
    01:00 +11°C° 0 mm 1 m/S 703 mmHg 76%
    02:00 +11°C° 0 mm 1 m/S 703 mmHg 75%
    03:00 +11°C° 0 mm 1 m/S 703 mmHg 75%
    04:00 +10°C° 0 mm 1 m/S 703 mmHg 74%
    05:00 +11°C° 0 mm 1 m/S 703 mmHg 70%
    06:00 +12°C° 0 mm 1 m/S 703 mmHg 66%
    07:00 +13°C° 0 mm 1 m/S 704 mmHg 62%
    08:00 +15°C° 0 mm 1 m/S 704 mmHg 54%
    09:00 +18°C° 0 mm 1 m/S 704 mmHg 46%
    10:00 +20°C° 0 mm 1 m/S 704 mmHg 38%
    11:00 +21°C° 0 mm 1 m/S 704 mmHg 35%
    12:00 +22°C° 0 mm 1 m/S 704 mmHg 33%
    13:00 +23°C° 0 mm 1 m/S 704 mmHg 30%
    14:00 +23°C° 0 mm 1 m/S 704 mmHg 31%
    15:00 +22°C° 0 mm 1 m/S 704 mmHg 32%
    16:00 +22°C° 0 mm 1 m/S 704 mmHg 32%
    17:00 +20°C° 0 mm 1 m/S 704 mmHg 37%
    18:00 +18°C° 0 mm 1 m/S 704 mmHg 41%
    19:00 +16°C° 0 mm 1 m/S 704 mmHg 45%
    20:00 +15°C° 0 mm 1 m/S 705 mmHg 47%
    21:00 +15°C° 0 mm 1 m/S 705 mmHg 48%
    22:00 +14°C° 0 mm 1 m/S 705 mmHg 50%
    23:00 +14°C° 0 mm 1 m/S 705 mmHg 50%
    Mehr zeigen